User: anonymous   Login
Location: Caltech
(34.1382°N, 118.1253°W)
Time: 22:17:36
(UTC-07:00)
Language:

Cosmos 1833 Rocket - Orbit

View from above orbital plane
View from above orbital plane
View from above satellite
View from above satellite

Ground track
Ground track

The orbit data is extracted from the following two-line orbital elements,

1 17590U 87027B   15180.56902966  .00000064  00000-0  56014-4 0  9994
2 17590 071.0021 223.1510 0006832 305.1028 054.9454 14.16700485462343
Epoch (UTC): 29 June 2015 13:39:24
Eccentricity: 0.0006832
inclination: 71.0021°
perigee height: 831 km
apogee height: 841 km
right ascension of ascending node: 223.1510°
argument of perigee: 305.1028°
revolutions per day: 14.16700485
mean anomaly at epoch: 54.9454°
orbit number at epoch: 46234

The dashed part of the orbit path shows where the satellite is in the earth's shadow,  

DLR